星链-32373 (STARLINK-32373)

导读

STARLINK-32373是美国太空探索技术公司SpaceX星链互联网卫星项目中的一员,于2024年8月31日发射入轨,归属美国所有。星链项目旨在构建覆盖全球的低轨卫星互联网星座,该卫星承担着为全球偏远地区、海洋空域等场景提供宽带互联网接入服务的任务,是星链大规模组网建设过程中新增的一颗组网卫星。

Basic Information
目录编号:
60923
目录名称:
STARLINK-32373
国际标识:
2024-154W
轨道中心:
EARTH
卫星名称:
星链-32373
卫星全名:
星链-32373 (STARLINK-32373)
卫星状态:
在轨 (已飞行734 天)
发射日期:
2024-08-31 UTC
国别 :
美国 (US)
星等 :
--
Orbit Information
数据来源 国际轨道数据
星历时间: 2026-09-04T03:58:08+0800
9小时前
查看轨道信息
半长轴: 6840.97km
偏心率: 0.0001433
轨道倾角: 53.161°
近地点辐角 95.139°
升交点赤经 175.377°
平近点角 264.977°
近地点: 461.852km
远地点: 463.814km
周期: 93.850分钟
每日圈数: 15.343564
Detailed Information
固有亮度:
5
最大亮度:
2.5
卫星平台:
Starlink V1.0
覆盖范围:
全球
运营商:
太空探索技术公司
运营商所在国:
美国
制造商(研发单位):
太空探索技术公司
制造商所在国:
美国
使用方式:
暂无
Satellite Introduction
Starlink 计划是 SpaceX 推出的全球卫星互联网项目,通过发射低轨道卫星,为全球尤其是偏远地区提供高速、低延迟的互联网服务。自 2019 年起,Starlink 已部署数千颗卫星,旨在缩小全球数字鸿沟,推动互联网普及。该项目还为军事、航空等行业提供通信支持,带来广泛经济效益。
2D Orbit Map
3D Orbit Map
Orbit Altitude Analysis Chart
Orbit Inclination Analysis Chart
Orbit Comprehensive Analysis Chart
View Comprehensive Chart
Conjunction Data List
Event ID Objects TCA Miss Dist (km) Collision Risk Probability Collision Risk Index (CRI) Action
CDM_260904-052506-092306-853322
2026-09-04T
05:25:36+0000
0.654 km
远距离
9.058937E-5 中风险 0.74
CDM_260904-131406-092306-468122
2026-09-04T
13:14:06+0000
0.690 km
远距离
7.766865E-5 中风险 0.73
CDM_260905-014006-092306-609121
2026-09-05T
01:40:17+0000
0.988 km
远距离
2.474425E-5 中风险 0.63
CDM_260904-215006-092306-853321
2026-09-04T
21:50:23+0000
1.491 km
极远距离
5.924874E-6 低风险 0.5
CDM_260904-201606-092306-853321
2026-09-04T
20:16:36+0000
2.215 km
极远距离
1.96842E-6 低风险 0.41
CDM_260901-201406-092306-418421
2026-09-01T
20:14:43+0000
2.527 km
极远距离
1.534261E-6 低风险 0.39
CDM_260904-065906-092306-853322
2026-09-04T
06:59:23+0000
2.612 km
极远距离
1.44015E-6 低风险 0.38
CDM_260905-000606-092306-609121
2026-09-05T
00:06:29+0000
2.848 km
极远距离
1.281715E-6 低风险 0.37